#timestamp,LO_Frequency,Hit,StdDev 
1511845215.2,286046990.6,N
1511845235.0,286046992.4,N
1511845235.9,286046992.4,N
1511845255.7,286046991.0,N
1511845275.6,286046989.6,N
1511845295.4,286046989.6,N
1511845315.2,286046990.7,N
1511845335.1,286046993.8,N
1511845336.0,286046993.8,N
1511845355.8,286046993.1,N
1511845375.6,286046998.0,N
1511845395.5,286046999.2,N
1511845415.3,286046999.3,N
1511845435.1,286047003.2,N
1511845455.9,286047002.2,N
1511845475.7,286047001.8,N
1511845495.5,286047001.8,N
1511845515.3,286047005.6,N
1511845535.2,286047008.5,N
1511845555.0,286047007.6,N
1511845555.9,286047007.6,N
1511845575.7,286047005.7,N
1511845595.6,286047003.6,N
1511845615.4,286047001.5,N
1511845635.2,286047004.3,N
1511845655.1,286047000.1,N
1511845656.0,286047000.1,N
1511845675.8,286046999.3,N
1511845695.6,286047001.1,N
1511845715.5,286046998.1,N
1511845735.3,286046998.4,N
1511845755.1,286046999.6,N
1511845775.9,286046998.2,N
1511845795.7,286046999.7,N
1511845815.5,286046999.8,N
1511845835.4,286046998.7,N
1511845855.2,286046998.8,N
1511845875.0,286047002.2,N
1511845875.9,286047002.2,N
1511845895.8,286047004.2,N
1511845915.6,286047000.4,N
1511845935.4,286046998.5,N
1511845955.2,286047002.4,N
1511845975.1,286046999.7,N
1511845976.0,286046999.7,N
1511845995.8,286047000.2,N
1511846015.6,286046998.3,N
1511846035.5,286047000.9,N
1511846055.3,286047001.0,N
1511846075.1,286047001.2,N
1511846095.9,286047001.0,N
1511846115.7,286046999.5,N
1511846135.5,286046999.2,N
1511846155.4,286046997.7,N
1511846175.2,286046999.0,N
1511846195.0,286046995.5,Y
1511846195.9,286046995.5,P
1511846215.8,286046996.1,N
1511846235.6,286046993.0,P
1511846255.4,286046993.2,N
1511846275.3,286046995.0,N
1511846295.1,286046993.6,N
1511846296.0,286046993.6,N
1511846315.8,286046992.1,Y
1511846335.7,286046994.7,P
1511846355.5,286046993.3,P
1511846375.3,286046993.8,P
1511846395.2,286046994.7,Y
1511846415.9,286046999.0,P
1511846435.7,286047000.6,N
1511846455.6,286047003.5,N
1511846475.4,286047005.8,N
1511846495.2,286047004.1,N
1511846515.1,286047003.9,N
1511846516.0,286047003.9,N
1511846535.8,286047004.4,N
1511846555.6,286047002.7,N
1511846575.4,286047000.0,N
1511846595.3,286047002.3,N
1511846615.1,286047005.4,N
1511846635.8,286047002.2,N
1511846655.7,286046998.8,N
1511846675.5,286047002.0,N
1511846695.3,286047001.1,N
1511846715.2,286046999.1,N
1511846735.9,286047001.0,N
1511846755.7,286047004.0,N
1511846775.6,286047002.6,N
1511846795.4,286047002.5,N
1511846815.2,286047000.0,N
1511846835.0,286047002.2,N
1511846836.0,286047002.2,N
1511846855.8,286047004.4,N
1511846875.6,286047002.5,N
1511846895.4,286047000.1,N
1511846915.3,286047000.2,N
1511846935.1,286047002.3,N
1511846955.8,286047001.2,N
1511846975.7,286047000.7,N
1511846995.5,286046996.6,N
1511847015.3,286046999.2,N
1511847035.2,286046996.3,N
1511847055.9,286046994.2,N
1511847075.7,286046992.5,Y
1511847095.6,286046994.1,P
1511847115.4,286046996.1,N
1511847135.2,286046993.5,N
1511847155.1,286046993.3,N
1511847156.0,286046993.3,N
1511847175.8,286046995.3,N
1511847195.6,286046994.9,N
1511847215.5,286046996.1,N
1511847235.3,286046994.6,N
1511847255.1,286046994.1,N
1511847275.9,286046995.1,N
1511847295.7,286046996.8,N
1511847315.5,286047000.2,N
1511847335.3,286047001.1,N
1511847355.2,286047004.0,N
1511847375.0,286047001.5,N
1511847375.9,286047001.5,N
1511847395.7,286047002.4,N
1511847415.6,286046998.1,N
1511847435.4,286047000.7,N
1511847455.2,286046998.5,N
1511847475.1,286047003.6,N
1511847476.0,286047003.6,N
1511847495.8,286047008.6,N
1511847515.6,286047009.3,N
1511847535.5,286047011.2,N
1511847555.3,286047011.9,N
1511847575.1,286047014.9,N
1511847595.9,286047012.4,N
1511847615.7,286047011.2,N
1511847635.5,286047017.2,N
1511847655.4,286047021.9,Y
1511847675.2,286047027.0,P
1511847695.0,286047030.9,N
1511847695.9,286047030.9,N
1511847715.8,286047034.7,N
1511847735.6,286047033.7,N
1511847755.4,286047029.1,N
1511847775.2,286047025.6,N
1511847795.1,286047025.4,N
1511847796.0,286047025.4,N
1511847815.8,286047024.6,N
1511847835.6,286047023.1,N
1511847855.5,286047023.6,N
1511847875.3,286047020.4,N
1511847895.1,286047018.2,N
1511847915.9,286047021.8,N
1511847935.7,286047020.3,N
1511847955.5,286047016.0,N
1511847975.4,286047017.2,N
1511847995.2,286047013.6,N
1511848015.0,286047011.1,N
1511848015.9,286047011.1,N
1511848035.8,286047007.9,N
1511848055.6,286047006.4,N
1511848075.4,286047005.2,N
1511848095.2,286047009.0,N
1511848115.1,286047007.2,N
1511848116.0,286047007.2,N
1511848135.8,286047006.0,N
1511848155.6,286047004.5,N
1511848175.5,286047005.5,N
1511848195.3,286047006.0,N
1511848215.1,286047004.1,N
1511848235.9,286047000.8,N
1511848255.7,286047001.5,N
1511848275.5,286047000.9,N
1511848295.4,286047002.3,N
1511848315.2,286047007.5,N
1511848335.0,286047001.8,N
1511848335.9,286047001.8,N
1511848355.8,286047001.5,N
1511848375.6,286046999.1,N
1511848395.4,286046996.4,N
1511848415.2,286046997.3,N
1511848435.1,286046995.2,N
1511848436.0,286046995.2,N
1511848455.8,286046999.1,N
1511848475.6,286046999.1,N
1511848495.5,286047002.4,N
1511848515.3,286047002.6,N
1511848535.1,286047005.5,N
1511848555.9,286047004.0,N
1511848575.7,286047002.8,N
1511848595.5,286047001.7,N
1511848615.4,286047005.4,N
1511848635.2,286047003.6,N
1511848655.0,286047006.7,N
1511848655.9,286047006.7,N
1511848675.8,286047006.2,N
1511848695.6,286047010.0,N
1511848715.4,286047011.1,Y
1511848735.3,286047011.5,P
1511848755.1,286047013.2,N
1511848756.0,286047013.2,N
1511848775.8,286047015.5,Y
1511848795.7,286047006.5,P
